[[{"header":{"parameterUnit":"m.s-1","parameterCategory":1,"la1":30.2991,"la2":30.254,"lo1":-89.0895,"lo2":-89.0444,"dy":0.0017,"dx":0.0017,"nx":28,"ny":28,"refTime":"2024-03-28T21:00:00:Z","depth":0,"parameterNumber":2,"parameterNumberName":"U-component_of_WINDS"},"data":[0,0,0,0,0,0,0,0,0,0,0,0,0,0,0,0,0,0,0,0,0,0,0,0,0,0,0,0,0,0,0,0,0,0,0,0,0,0,0,0,0,0,0,0,0,0,0,0,0,0,0,0,0,0,0,0,0,0,-4.3885,-4.3885,0,-4.3912,-4.3912,-4.3913,-4.3838,-4.3835,-4.3833,-4.3831,-4.3858,-4.3861,-4.3864,0,0,0,0,0,0,0,0,0,0,0,0,0,-4.3771,-4.3774,-4.3885,-4.3885,-4.3886,-4.3912,-4.3912,-4.3913,-4.3838,-4.3835,-4.3832,-4.383,-4.3857,-4.3861,-4.3864,0,0,0,0,0,0,0,0,0,0,0,0,0,-4.3812,-4.3775,-4.3885,-4.3852,-4.3849,-4.3912,-4.3912,-4.3913,-4.3839,-4.3835,-4.3832,-4.3828,-4.3856,-4.386,-4.3865,-4.3961,0,0,-4.3878,-4.388,0,0,0,0,0,0,0,0,-4.381,-4.3816,-4.3856,-4.3854,-4.3851,-4.3868,-4.3882,-4.3929,-4.3839,-4.3843,-4.3831,-4.3827,-4.3864,-4.3868,-4.388,-4.3962,-4.3963,-4.3878,-4.3881,-4.3883,-4.3884,0,0,0,0,0,0,0,-4.3807,-4.3814,-4.3896,-4.3857,-4.3854,-4.3836,-4.3838,-4.3891,-4.3873,-4.3842,-4.3837,-4.3841,-4.3862,-4.3876,-4.3881,-4.3964,-4.3878,-4.3882,-4.3885,-4.3886,-4.4128,-4.4131,0,0,0,0,0,0,-4.3808,-4.3813,-4.3895,-4.3896,-4.3821,-4.3841,-4.3843,-4.3866,-4.3872,-4.3869,-4.3844,-4.3837,-4.3871,-4.3876,-4.3881,-4.3994,-4.3883,-4.3887,-4.3889,-4.4124,-4.4128,-4.4133,0,0,0,0,0,0,-4.3806,-4.3816,-4.3894,-4.3853,-4.3862,-4.3847,-4.3873,-4.3868,-4.3882,-4.3873,-4.387,-4.3861,-4.3868,-4.3875,-4.3942,-4.3994,-4.3889,-4.3893,-4.4119,-4.4125,-4.4131,-4.4221,0,0,0,0,0,0,-4.3803,-4.3816,-4.3851,-4.3854,-4.3864,-4.3954,-4.3876,-4.3871,-4.389,-4.3882,-4.3889,-4.3887,-4.3866,-4.3936,-4.3946,-4.3998,-4.3896,-4.4115,-4.4122,-4.4129,-4.4213,-4.4229,-4.4242,0,0,0,0,0,-4.3799,-4.3876,-4.3854,-4.3864,-4.3908,-4.3957,-4.3962,-4.3937,-4.3895,-4.393,-4.3925,-4.3886,-4.3988,-4.3943,-4.3954,-4.4008,-4.4111,-4.412,-4.4128,-4.4206,-4.4226,-4.4242,0,0,0,0,0,0,-4.3878,-4.3875,-4.3851,-4.393,-4.3945,-4.3944,-4.3988,-4.3958,-4.3984,-4.3975,-4.3943,-4.3946,-4.4018,-4.4021,-4.3971,-4.4103,-4.4042,-4.4053,-4.4098,-4.4116,-4.4131,-4.4127,-4.39,0,0,0,0,0,-4.3905,-4.3944,-4.394,-4.4011,-4.4019,-4.4003,-4.4023,-4.4003,-4.4016,-4.4021,-4.4021,-4.4035,-4.407,-4.4094,-4.4126,-4.4215,-4.4215,-4.4257,-4.4272,-4.4284,-4.4293,-4.4341,-4.4359,-4.4161,-4.4161,-4.416,0,0,-4.396,-4.3964,-4.399,-4.4027,-4.4035,-4.4077,-4.4008,-4.4055,-4.4085,-4.4028,-4.4091,-4.4092,-4.4106,-4.4185,-4.4219,-4.4189,-4.4349,-4.4295,-4.4305,-4.4307,-4.4352,-4.437,-4.4387,-4.4167,-4.4165,-4.4165,0,0,-4.4082,-4.4089,-4.4148,-4.4159,-4.4173,-4.4163,-4.4178,-4.4183,-4.4181,-4.4244,-4.4202,-4.4239,-4.43,-4.4312,-4.4326,-4.4457,-4.4422,-4.4469,-4.4544,-4.4591,-4.4607,-4.462,-4.4666,-4.4683,-4.4479,-4.4479,-4.4479,0,-4.4148,-4.4209,-4.4183,-4.4233,-4.425,-4.4202,-4.4263,-4.4275,-4.4299,-4.4312,-4.4278,-4.4355,-4.4361,-4.4442,-4.4474,-4.4488,-4.4504,-4.4466,-4.4607,-4.462,-4.4632,-4.4675,-4.4693,-4.4484,-4.4484,-4.4483,-4.4482,0,-4.429,-4.4333,-4.438,-4.4405,-4.4428,-4.4483,-4.4466,-4.4493,-4.4473,-4.4466,-4.4532,-4.4539,-4.4571,-4.459,-4.4569,-4.4668,-4.4649,-4.4612,-4.4549,-4.4657,-4.4697,-4.4713,-4.4492,-4.449,-4.4488,-4.4487,0,0,-4.4457,-4.447,-4.4487,-4.4498,-4.4512,-4.4545,-4.46,-4.4632,-4.4656,-4.4676,-4.472,-4.4775,-4.4741,-4.4757,-4.4739,-4.4781,-4.4883,-4.4738,-4.4738,-4.4763,-4.4992,-4.5018,-4.5038,-4.4862,-4.4865,-4.4868,-4.4991,0,-4.4576,-4.4667,-4.4647,-4.4738,-4.4778,-4.4735,-4.4783,-4.4797,-4.4794,-4.4828,-4.4824,-4.4863,-4.4816,-4.4826,-4.4865,-4.4862,-4.4928,-4.4854,-4.4902,-4.4904,-4.4897,-4.5059,-4.5086,-4.5201,-4.5006,-4.5009,-4.5011,0,-4.4725,-4.4751,-4.4845,-4.4855,-4.4871,-4.4914,-4.4943,-4.4976,-4.4993,-4.4987,-4.5008,-4.4982,-4.5037,-4.4978,-4.5053,-4.5002,-4.5022,-4.5024,-4.5028,-4.5029,-4.4962,-4.5062,-4.5238,-4.5254,-4.5035,-4.5033,-4.5032,0,-4.4835,-4.4895,-4.4959,-4.497,-4.4983,-4.5014,-4.5021,-4.5035,-4.5056,-4.5083,-4.5096,-4.5129,-4.5146,-4.5173,-4.5157,-4.5115,-4.5235,-4.5174,-4.5232,-4.5232,-4.5256,-4.5254,-4.5435,-4.5273,-4.5273,-4.5273,-4.5272,0,-4.4968,-4.5027,-4.5009,-4.5048,-4.5114,-4.5092,-4.5158,-4.516,-4.5173,-4.5213,-4.5179,-4.5217,-4.5196,-4.5232,-4.5221,-4.5285,-4.5294,-4.5291,-4.5287,-4.5292,-4.5292,-4.5302,-4.5293,-4.5277,-4.5276,-4.5275,-4.5275,0,-4.51,-4.5091,-4.5158,-4.5166,-4.517,-4.5218,-4.5225,-4.5262,-4.5258,-4.5309,-4.532,-4.5313,-4.5355,-4.5343,-4.5389,-4.5381,-4.5461,-4.5448,-4.5455,-4.5451,-4.5509,-4.5503,-4.57,-4.5724,-4.555,-4.5551,-4.5553,0,-4.5184,-4.5229,-4.5242,-4.5267,-4.5276,-4.5316,-4.5338,-4.532,-4.5345,-4.5369,-4.5403,-4.5443,-4.5472,-4.5542,-4.5541,-4.5577,-4.5562,-4.563,-4.5567,-4.5572,-4.5561,-4.5558,-4.5562,-4.564,-4.5643,-4.5644,-4.5645,0,-4.5333,-4.5327,-4.536,-4.5393,-4.5421,-4.5446,-4.5467,-4.5489,-4.5473,-4.5503,-4.5545,-4.5569,-4.5617,-4.5656,-4.5689,-4.5696,-4.5669,-4.5666,-4.5681,-4.5685,-4.5687,-4.5685,-4.5486,-4.566,-4.5659,-4.5658,-4.5657,-4.5656,-4.5442,-4.548,-4.5496,-4.5535,-4.555,-4.5572,-4.5608,-4.5609,-4.5644,-4.5681,-4.5669,-4.5718,-4.5736,-4.5777,-4.579,-4.5828,-4.5803,-4.5825,-4.583,-4.5835,-4.5841,-4.5684,-4.5835,-4.5834,-4.5834,-4.5834,-4.5833,0,-4.5588,-4.5597,-4.5633,-4.5665,-4.5696,-4.567,-4.5693,-4.5721,-4.5764,-4.5784,-4.5815,-4.5865,-4.5904,-4.5908,-4.5945,-4.5975,-4.5963,-4.5985,-4.5981,-4.5984,-4.5863,-4.5845,-4.5994,-4.5994,-4.5994,-4.5994,-4.5994,-4.5994,-4.5667,-4.573,-4.5727,-4.5797,-4.5806,-4.5854,-4.587,-4.589,-4.5906,-4.5963,-4.5995,-4.5998,-4.6012,-4.605,-4.6085,-4.6086,-4.61,-4.6127,-4.6122,-4.6008,-4.5992,-4.5977,-4.596,-4.613,-4.6131,-4.6239,-4.624,-4.6241]},{"header":{"parameterUnit":"m.s-1","parameterCategory":1,"la1":30.2991,"la2":30.254,"lo1":-89.0895,"lo2":-89.0444,"dy":0.0017,"dx":0.0017,"nx":28,"ny":28,"refTime":"2024-03-28T21:00:00:Z","depth":0,"parameterNumber":3,"parameterNumberName":"V-component_of_WINDS"},"data":[0,0,0,0,0,0,0,0,0,0,0,0,0,0,0,0,0,0,0,0,0,0,0,0,0,0,0,0,0,0,0,0,0,0,0,0,0,0,0,0,0,0,0,0,0,0,0,0,0,0,0,0,0,0,0,0,0,0,3.0773,3.0773,0,3.0818,3.0818,3.0819,3.0886,3.0887,3.0888,3.0889,3.0931,3.0931,3.0931,0,0,0,0,0,0,0,0,0,0,0,0,0,3.0741,3.0742,3.0773,3.0773,3.0774,3.0818,3.0818,3.0819,3.0886,3.0887,3.0889,3.089,3.0931,3.0931,3.0931,0,0,0,0,0,0,0,0,0,0,0,0,0,3.0767,3.0742,3.0773,3.0812,3.0817,3.0818,3.0819,3.0819,3.0885,3.0887,3.0889,3.0891,3.0931,3.0931,3.0931,3.0896,0,0,3.0931,3.0931,0,0,0,0,0,0,0,0,3.0766,3.0769,3.0806,3.081,3.0814,3.0848,3.0823,3.0845,3.0885,3.0859,3.0889,3.0891,3.0902,3.0904,3.0909,3.0898,3.0899,3.0931,3.0931,3.0931,3.0931,0,0,0,0,0,0,0,3.0764,3.0767,3.0791,3.0806,3.0812,3.0827,3.0833,3.0827,3.087,3.0861,3.0866,3.0871,3.0904,3.0909,3.091,3.09,3.0931,3.0931,3.0931,3.0931,3.0864,3.0862,0,0,0,0,0,0,3.0757,3.0765,3.0789,3.0792,3.0794,3.0826,3.0833,3.0835,3.087,3.0877,3.087,3.0874,3.0908,3.091,3.0912,3.0874,3.0931,3.0931,3.0931,3.0865,3.0863,3.0861,0,0,0,0,0,0,3.0756,3.0758,3.0787,3.078,3.0785,3.0825,3.0827,3.0835,3.084,3.0876,3.0884,3.0866,3.0909,3.0912,3.09,3.0876,3.0931,3.0931,3.0867,3.0865,3.0862,3.0796,0,0,0,0,0,0,3.0755,3.0758,3.0745,3.0779,3.0785,3.0775,3.0826,3.0835,3.084,3.0846,3.0875,3.0881,3.0911,3.0899,3.09,3.0877,3.0931,3.087,3.0866,3.0863,3.08,3.0791,3.0783,0,0,0,0,0,3.0753,3.0723,3.0744,3.0746,3.077,3.0773,3.0777,3.0812,3.0838,3.0825,3.0849,3.0881,3.0879,3.0898,3.0899,3.0875,3.0871,3.0867,3.0863,3.0804,3.0793,3.0784,0,0,0,0,0,0,3.0683,3.0728,3.0752,3.0732,3.0749,3.0785,3.077,3.0799,3.0807,3.0813,3.0855,3.0861,3.0844,3.0859,3.0879,3.0844,3.088,3.0876,3.0835,3.0824,3.0816,3.0812,3.0931,0,0,0,0,0,3.0665,3.0665,3.0705,3.0683,3.0691,3.0729,3.0731,3.0758,3.0776,3.0783,3.0806,3.0821,3.0824,3.0825,3.083,3.0803,3.0811,3.0788,3.0779,3.0772,3.0768,3.0756,3.0746,3.0848,3.0848,3.0848,0,0,3.0628,3.0653,3.065,3.067,3.0686,3.0684,3.0734,3.073,3.0729,3.0782,3.0772,3.079,3.081,3.0791,3.0783,3.0802,3.0742,3.0767,3.0761,3.0761,3.0751,3.0741,3.0732,3.0845,3.0846,3.0846,0,0,3.056,3.0579,3.0564,3.058,3.0604,3.063,3.0627,3.0659,3.0673,3.0665,3.0705,3.0704,3.0709,3.0722,3.0729,3.0669,3.0698,3.0669,3.0624,3.0612,3.0604,3.0597,3.0576,3.0567,3.0665,3.0664,3.0664,0,3.0511,3.0511,3.0552,3.0546,3.0554,3.0604,3.0589,3.0602,3.0626,3.0629,3.0651,3.0659,3.0676,3.0661,3.0647,3.0651,3.0648,3.0665,3.0602,3.0595,3.059,3.057,3.0561,3.0661,3.0661,3.0662,3.0662,0,3.0449,3.0449,3.0434,3.0458,3.0464,3.0453,3.0492,3.0493,3.052,3.0543,3.0534,3.0557,3.0568,3.0567,3.0591,3.0555,3.0567,3.0594,3.0632,3.0575,3.0558,3.055,3.0655,3.0657,3.0658,3.0659,0,0,3.0336,3.0386,3.0379,3.0391,3.0423,3.0423,3.0415,3.0428,3.0428,3.0443,3.0437,3.0441,3.0468,3.0476,3.0503,3.0492,3.0443,3.0521,3.0522,3.0506,3.0406,3.0385,3.0375,3.0464,3.0462,3.0461,3.0404,0,3.0274,3.0265,3.0302,3.0282,3.0283,3.0332,3.0325,3.0343,3.0365,3.0368,3.0392,3.0395,3.0429,3.0435,3.0427,3.0451,3.0424,3.0456,3.0458,3.0457,3.0451,3.0366,3.0343,3.0288,3.0397,3.0396,3.0395,0,3.02,3.0214,3.0195,3.0229,3.0231,3.0224,3.024,3.0242,3.0264,3.0281,3.0291,3.0324,3.0318,3.0354,3.0347,3.0367,3.0371,3.0383,3.0382,3.0383,3.0422,3.0364,3.0271,3.0262,3.0385,3.0386,3.0386,0,3.012,3.0134,3.0125,3.0133,3.0173,3.0168,3.0184,3.0208,3.0213,3.0227,3.0231,3.0242,3.0248,3.0256,3.0291,3.0314,3.0279,3.0318,3.0293,3.0292,3.0282,3.0282,3.0188,3.0285,3.0285,3.0285,3.0285,0,3.0047,3.0033,3.0089,3.0083,3.0069,3.0113,3.0098,3.0119,3.014,3.0139,3.0181,3.0179,3.0225,3.0227,3.0254,3.0244,3.0246,3.0259,3.0266,3.0255,3.0253,3.0257,3.0262,3.0283,3.0283,3.0284,3.0284,0,2.9954,2.9992,2.9985,3.0024,3.0034,3.0022,3.0055,3.0051,3.0077,3.0075,3.0077,3.0117,3.0122,3.0158,3.017,3.0188,3.0168,3.0183,3.0161,3.0166,3.0138,3.014,3.0043,3.0032,3.0136,3.0135,3.0134,0,2.9905,2.9896,2.9935,2.9938,2.9953,2.9957,2.9964,3.0007,3.0012,3.0038,3.003,3.004,3.0049,3.0056,3.0085,3.0095,3.0111,3.0076,3.0112,3.0102,3.011,3.011,3.011,3.0067,3.0066,3.0065,3.0064,0,2.9814,2.9833,2.9842,2.9858,2.9865,2.9879,2.9895,2.9895,2.9943,2.9946,2.9953,2.9961,2.9976,2.9984,3.0,3.0016,3.0047,3.0053,3.0048,3.0036,3.0023,3.003,3.014,3.0054,3.0055,3.0056,3.0057,3.0057,2.9741,2.9736,2.9764,2.9772,2.979,2.9805,2.9803,2.983,2.9837,2.9854,2.9878,2.9882,2.9906,2.9931,2.9944,2.9947,2.9965,2.9957,2.9955,2.9953,2.9947,3.0024,2.995,2.995,2.9951,2.9951,2.9951,0,2.9652,2.9673,2.9681,2.9704,2.9711,2.9742,2.9763,2.9766,2.9769,2.9789,2.9799,2.9807,2.9817,2.9848,2.986,2.9857,2.9871,2.9858,2.9859,2.9862,2.993,2.9933,2.9846,2.9846,2.9846,2.9846,2.9846,2.9846,2.9607,2.96,2.9623,2.9625,2.9646,2.9651,2.966,2.9674,2.9691,2.9699,2.9707,2.9729,2.9753,2.9768,2.9778,2.9787,2.9789,2.9771,2.9784,2.9847,2.9857,2.9866,2.987,2.9771,2.9771,2.9716,2.9716,2.9715]}]]